Regional Weather Roundup
Issued by NWS

Home | Current Version | Previous Version | Graphics & Text | Print | Product List | Glossary On
Versions: 1 2 3 4 5 6 7 8 9 10 11 12 13 14 15 16 17 18 19 20 21 22 23 24 25 26 27 28 29 30 31 32 33 34 35 36 37 38 39 40 41 42 43 44 45 46 47 48 49 50
000
ASUS43 KTOP 052008
RWRKS

WEATHER ROUNDUP FOR KANSAS
NATIONAL WEATHER SERVICE GOODLAND KS
300 PM CDT TUE MAY 05 2015

NOTE:  "FAIR" INDICATES FEW OR NO CLOUDS BELOW 12,000 FEET WITH NO
SIGNIFICANT WEATHER AND/OR OBSTRUCTIONS TO VISIBILITY.

KSZ001>006-013>018-027>032-041>047-052100-
NORTHWEST KANSAS

CITY           SKY/WX    TMP DP  RH WIND       PRES   REMARKS
GOODLAND       LGT RAIN  59  56  89 SE20G33   29.88F
HAYS           CLOUDY    68  52  56 SE25      29.94F
HILL CITY      CLOUDY    66  55  67 SE21      29.94F
RUSSELL        CLOUDY    69  55  60 SE21      29.94F
$$

KSZ061>065-074>080-084>089-052100-
SOUTHWEST KANSAS

CITY           SKY/WX    TMP DP  RH WIND       PRES   REMARKS
DODGE CITY     LGT RAIN  58  54  86 SE22G31   29.91F FOG
ELKHART          N/A     60  52  75 S18         N/A
GARDEN CITY    LGT RAIN  57  56  96 SE28G37   29.86F
GREAT BEND     CLOUDY    68  54  60 SE24G30   29.94F
LIBERAL        CLOUDY    61  57  88 SE18G24   29.85F
PRATT          CLOUDY    68  50  52 SE18G25   29.95F
$$

KSZ066>073-081>083-090>101-052100-
SOUTHEAST KANSAS

CITY           SKY/WX    TMP DP  RH WIND       PRES   REMARKS
CHANUTE        PTSUNNY   77  60  55 S15       30.04F
COFFEYVILLE    PTSUNNY   81  61  50 S17G26    30.01F
HUTCHINSON     CLOUDY    75  52  44 SE25G35   29.96F
MEDICINE LODGE   N/A     65  59  81 S12G23    29.95S
NEWTON         PTSUNNY   73  48  40 S16G29    30.00F
PARSONS        PTSUNNY   80  62  54 S10       30.03F
WICHITA INTL   CLOUDY    75  51  43 SE26      29.97F
WICHITA JABRA  PTSUNNY   74  48  39 S23G33    29.98F
WICHITA MCCONL PTSUNNY   74  52  45 SE21      29.98F
WINFIELD       PTSUNNY   73  55  53 S17       30.00F
$$

KSZ007>012-019>026-033>040-048>060-102>105-052100-
NORTHEAST KANSAS

CITY           SKY/WX    TMP DP  RH WIND       PRES   REMARKS
CONCORDIA      PTSUNNY   76  54  46 SE21G26   29.98F
EMPORIA        PTSUNNY   76  54  46 S21G32    30.01F
LAWRENCE       CLOUDY    81  56  42 S15G22    30.04F
MANHATTAN      PTSUNNY   78  56  46 SE15      30.00F
MARYSVILLE     CLOUDY    77  59  53 SE12G18   30.02F
OLATHE IND     PTSUNNY   81  55  40 S10       30.06F
OLATHE EXE     PTSUNNY   80  57  45 S13       30.05F
SALINA         MOSUNNY   78  54  43 SE18G28   29.97F
TOPEKA BILLARD CLOUDY    80  55  42 S13G21    30.03F
TOPEKA FORBES  PTSUNNY   80  54  40 S16       30.03F
$$


USA.gov is the U.S. government's official web portal to all federal, state and local government web resources and services.